This is the latest recevied weather packets stored in our database for station/object KE7JVX-3. If no packets are shown the sender has not sent any weather packets the latest 10 day(s).
| Time | Temp. | Humidity | Pressure | Rain* | Wind** | Luminosity | Snow |
|---|---|---|---|---|---|---|---|
| 1777745667 | 9.44° C | 43% | 1014.3 hPa | 0 mm | - | - | - |
| 1777745067 | 9.44° C | 45% | 1014.3 hPa | 0 mm | - | - | - |
| 1777744467 | 8.33° C | 47% | 1014.2 hPa | 0 mm | - | - | - |
| 1777743867 | 8.33° C | 47% | 1014.2 hPa | 0 mm | - | - | - |
| 1777743267 | 8.33° C | 47% | 1014.2 hPa | 0 mm | - | - | - |
| 1777742667 | 8.33° C | 51% | 1014.2 hPa | 0 mm | - | - | - |
| 1777742067 | 7.78° C | 51% | 1014.1 hPa | 0 mm | - | - | - |
| 1777740867 | 7.22° C | 55% | 1013.9 hPa | 0 mm | - | - | - |
| 1777740268 | 6.67° C | 57% | 1013.9 hPa | 0 mm | - | - | - |
| 1777739667 | 6.67° C | 56% | 1013.8 hPa | 0 mm | - | - | - |
| 1777739070 | 6.67° C | 60% | 1013.7 hPa | 0 mm | - | - | - |
| 1777738467 | 6.11° C | 60% | 1013.8 hPa | 0 mm | - | - | - |
| 1777737867 | 6.11° C | 61% | 1013.7 hPa | 0 mm | - | - | - |
| 1777737268 | 5.56° C | 63% | 1013.6 hPa | 0 mm | - | - | - |
| 1777736667 | 5.56° C | 63% | 1013.5 hPa | 0 mm | - | - | - |
| 1777736067 | 5.56° C | 64% | 1013.5 hPa | 0 mm | - | - | - |
| 1777735346 | 5° C | 65% | 1013.3 hPa | 0 mm | - | - | - |
| 1777734746 | 4.44° C | 67% | 1013.1 hPa | 0 mm | - | - | - |
| 1777734148 | 4.44° C | 67% | 1013.1 hPa | 0 mm | - | - | - |
| 1777733547 | 3.89° C | 68% | 1013 hPa | 0 mm | - | - | - |
| 1777732949 | 3.89° C | 68% | 1013 hPa | 0 mm | - | - | - |
| 1777732346 | 4.44° C | 66% | 1013 hPa | 0 mm | - | - | - |
| 1777731746 | 4.44° C | 65% | 1012.9 hPa | 0 mm | - | - | - |
| 1777731149 | 4.44° C | 65% | 1012.8 hPa | 0 mm | - | - | - |
| 1777730546 | 3.89° C | 66% | 1012.7 hPa | 0 mm | - | - | - |
* Rain latest hour (hover to see other rain measurements)
** Current wind speed in m/s (hover to see current wind gust speed)